Theta_e
353 362 364 365 364 365 365 365 364 363 362 361 360 361 361 360 361 361 362 363 363 363 360 359 359 358 356 355 354 355 357 357 355 354 354 353 352 350 350 350 349 346 350
357 363 363 364 364 365 365 365 364 363 362 361 362 361 360 360 361 361 362 362 363 362 358 357 357 356 355 354 353 353 354 356 356 354 352 352 352 350 349 349 347 348 349
358 363 362 363 364 364 364 364 363 363 362 362 362 361 361 361 362 362 361 362 363 359 357 354 355 356 355 355 354 353 353 354 354 353 351 349 346 349 348 348 349 349 349
360 363 361 363 363 364 363 362 362 362 362 362 362 361 361 361 362 361 361 361 360 356 354 353 354 354 355 355 355 356 356 353 353 351 346 345 346 349 348 348 349 349 348
360 362 362 362 362 363 362 361 361 361 361 361 361 362 361 361 361 360 360 360 358 354 353 353 355 356 357 356 357 357 356 355 355 353 353 347 349 348 349 348 347 349 349
359 360 361 361 361 362 361 361 360 360 361 361 361 361 361 360 360 360 360 359 357 355 356 357 357 357 357 356 355 355 355 352 347 343 344 350 349 351 350 349 348 347 348
357 360 360 361 361 361 361 360 360 360 360 360 360 361 360 360 360 360 360 359 358 356 357 357 356 356 356 355 354 355 352 345 342 342 342 349 351 348 352 352 351 350 348
356 359 359 360 360 360 360 360 359 359 359 359 359 360 360 360 360 360 359 359 358 356 357 357 356 356 355 354 354 353 350 345 340 339 338 350 352 348 351 354 354 352 349
357 358 358 357 359 360 359 359 359 358 358 358 358 358 358 358 358 358 357 357 356 356 355 356 356 355 354 353 353 352 350 345 340 338 333 338 351 350 350 356 355 355 351
356 356 356 357 355 355 357 359 358 358 357 356 357 357 357 357 357 357 354 355 355 355 354 355 355 354 353 352 352 351 350 345 339 337 335 335 336 339 346 355 356 358 356
352 353 355 354 355 354 353 355 357 358 358 357 357 357 354 352 355 355 353 354 354 354 353 353 353 353 352 352 352 351 348 340 336 332 331 339 335 339 348 356 357 358 358
349 350 353 353 355 353 351 355 354 353 354 354 354 355 353 355 356 353 354 354 354 353 352 352 351 351 350 345 345 348 343 340 335 331 331 339 338 341 346 355 358 358 358
350 350 353 353 355 353 350 354 353 353 354 355 355 356 355 354 354 353 351 352 352 352 346 346 344 342 341 342 341 339 337 334 331 331 335 340 343 343 346 351 352 357 358
351 352 353 353 355 355 351 351 351 352 353 351 352 355 353 351 352 351 349 349 352 349 348 347 342 342 343 340 338 336 335 332 328 329 336 342 344 345 347 352 354 357 357
352 353 355 355 356 355 355 351 350 352 352 351 352 354 353 350 350 350 350 349 349 348 347 346 344 342 340 339 337 335 332 332 332 331 331 341 343 346 348 351 356 358 358
351 353 356 355 357 356 355 353 351 353 353 352 351 353 354 352 351 350 351 350 349 349 348 347 345 343 340 338 336 336 335 333 333 333 331 333 341 344 348 352 357 359 359
344 350 356 357 357 356 356 354 351 351 350 350 351 354 355 355 353 352 349 348 349 351 352 350 348 345 342 340 338 336 335 335 333 333 334 332 333 343 346 350 354 357 359
333 342 350 354 356 356 356 356 354 352 351 351 352 353 353 354 353 352 349 348 349 350 349 348 347 345 344 342 340 339 337 337 336 336 335 335 334 336 345 349 352 354 356
334 334 341 350 354 356 356 355 353 349 349 351 353 353 354 355 355 353 350 349 351 349 348 347 346 345 344 345 343 342 341 340 340 337 338 338 340 340 341 347 349 351 352
332 333 336 341 350 352 352 352 353 350 343 344 348 352 353 354 353 354 352 351 351 349 349 347 346 347 343 341 341 341 343 342 342 340 340 341 340 339 344 348 349 350 349
329 333 333 337 342 345 346 346 347 347 346 346 349 347 349 354 354 356 352 353 353 350 349 345 345 336 339 341 333 337 340 343 341 342 342 342 342 340 341 345 348 348 350
328 334 337 335 339 344 344 345 345 345 345 347 349 351 351 352 355 355 356 354 352 347 343 344 335 333 336 340 333 337 328 334 339 340 342 341 342 341 339 344 347 350 351
327 329 329 334 338 341 344 342 343 346 346 345 346 348 351 352 353 355 356 353 352 342 338 334 336 335 331 333 337 332 327 324 330 338 340 339 344 340 342 344 345 348 352
317 320 322 322 322 324 333 343 343 342 342 345 344 344 342 348 350 351 351 351 350 347 345 341 340 341 338 332 338 339 340 337 326 324 334 337 341 342 345 341 342 345 348
313 314 316 316 316 317 318 321 321 323 323 326 328 330 334 336 338 343 349 351 351 349 347 345 344 341 339 334 333 335 334 334 332 326 323 326 336 339 343 344 344 345 349
311 312 313 315 314 315 315 316 316 316 316 316 318 318 320 322 324 331 334 342 347 347 348 347 347 345 343 342 340 339 336 333 330 329 326 326 328 334 339 343 344 346 347
Wind_Speed
12 17 15 12 12 12 14 16 19 19 19 19 19 19 18 18 18 17 16 15 13 13 13 13 13 14 14 15 14 14 12 12 12 11 9 9 9 8 7 7 7 8 8
14 16 17 14 13 14 14 15 18 18 18 18 19 18 18 18 17 16 15 14 13 13 13 13 13 14 14 14 14 13 12 10 10 9 8 7 8 7 7 7 4 9 8
17 17 17 16 13 13 13 15 17 17 17 17 17 18 18 18 16 15 14 13 12 13 13 13 13 14 14 14 14 13 12 10 9 9 7 5 7 6 6 6 6 8 8
15 15 16 17 15 13 13 13 14 16 16 17 17 17 17 17 15 14 13 12 12 12 12 13 13 13 13 13 12 11 10 10 9 8 6 6 6 7 6 7 7 7 7
15 14 15 17 16 13 14 14 14 15 15 15 16 16 16 15 15 13 12 11 12 12 13 13 12 11 12 11 10 9 8 8 8 8 5 5 4 9 8 7 8 7 6
14 14 16 16 15 14 14 13 14 15 15 15 15 15 14 13 13 12 11 10 10 10 11 11 10 9 9 9 9 7 7 7 7 4 4 6 6 8 9 8 6 5 7
15 14 15 14 15 15 15 14 13 14 14 15 15 14 14 13 12 12 11 10 9 9 9 8 8 8 8 8 8 7 6 5 6 4 3 5 8 8 9 8 8 7 8
15 14 15 13 13 15 16 15 13 13 14 13 13 14 13 12 12 11 11 10 9 9 9 9 8 7 8 8 8 8 7 6 6 4 3 4 4 9 9 9 9 9 9
12 13 13 14 13 12 13 14 15 13 13 13 12 12 12 12 11 11 10 9 8 7 7 8 8 8 8 8 8 8 7 7 7 4 5 4 6 9 10 10 10 10 11
10 11 11 11 13 13 12 11 13 13 13 13 13 11 11 11 11 10 10 10 10 8 7 6 7 7 6 7 8 8 7 8 9 6 5 4 4 7 11 12 11 12 12
9 10 10 11 11 12 12 12 10 12 11 12 12 13 10 10 11 12 9 9 10 9 9 8 8 8 8 9 9 9 9 6 7 5 5 3 7 9 8 10 12 12 12
11 12 11 10 11 12 10 13 12 11 10 10 11 13 10 10 10 10 8 10 10 10 10 10 10 10 9 8 6 8 7 7 6 6 5 3 8 10 10 10 13 13 13
10 9 11 11 11 12 10 9 7 7 8 9 13 12 11 9 7 7 6 7 8 11 7 9 9 9 10 7 7 6 7 7 5 6 7 6 9 11 13 12 13 15 13
14 14 11 12 12 14 9 11 11 10 10 9 11 13 9 7 9 8 7 8 7 6 8 8 6 8 9 9 8 9 9 8 6 5 7 8 10 12 14 13 14 14 14
10 12 15 15 13 12 12 7 8 10 10 11 10 12 10 9 9 9 9 9 8 8 8 7 8 7 7 8 8 9 9 10 10 7 6 8 11 11 14 14 14 15 14
7 11 11 14 15 13 11 12 8 6 8 9 9 10 13 9 7 8 8 8 8 8 8 8 8 7 7 7 8 8 9 8 9 10 8 9 10 12 12 13 14 14 15
5 6 10 12 14 15 14 12 9 8 8 7 6 9 12 11 9 9 8 8 8 7 8 7 7 6 6 7 9 8 8 9 9 11 10 9 10 10 11 12 13 13 15
11 10 8 9 13 14 12 10 8 8 8 7 7 6 9 10 11 9 9 8 7 5 6 7 7 7 7 7 8 9 9 9 11 11 11 10 9 9 7 12 14 14 15
6 4 5 11 15 14 14 10 9 6 7 7 8 8 10 11 11 10 9 9 10 9 7 7 8 7 7 8 9 9 9 10 11 10 13 12 12 11 9 8 11 12 15
8 4 6 9 12 13 10 10 9 9 6 6 7 7 10 9 10 10 10 11 9 6 7 6 7 6 6 9 11 11 11 10 10 11 13 10 12 13 11 11 10 9 15
5 7 8 10 11 9 9 9 8 10 8 6 6 11 12 10 12 12 8 9 7 9 8 7 7 3 2 1 6 8 10 10 12 12 11 12 13 13 13 12 9 8 8
8 6 5 1 4 7 6 6 6 5 7 9 8 9 10 11 12 12 12 9 12 9 10 12 8 4 6 4 4 9 8 7 8 9 9 10 14 11 13 13 13 12 11
11 8 7 6 4 3 6 2 2 3 4 5 5 6 8 11 11 13 13 10 12 7 9 12 12 11 7 8 12 8 8 9 7 4 7 8 10 9 10 10 12 12 10
12 11 14 12 11 10 9 1 4 4 4 2 2 2 3 6 9 11 12 13 14 11 11 9 9 11 6 8 4 11 11 8 8 11 6 6 9 10 10 9 10 11 9
14 13 12 13 14 14 13 11 6 7 4 5 5 7 5 4 4 5 8 10 11 9 11 11 10 11 10 11 11 10 9 9 11 8 14 10 8 9 8 8 7 7 7
12 12 11 12 12 12 11 11 11 10 8 8 9 8 7 7 6 7 9 9 10 10 11 11 13 14 13 13 11 9 10 7 7 7 11 14 12 8 9 8 7 7 7
Wind_Direction
158 148 148 139 133 134 140 143 143 141 143 145 147 147 141 134 134 135 136 137 134 127 127 122 122 123 123 122 123 123 128 125 122 124 127 130 126 131 128 122 135 110 108
151 149 145 140 136 137 141 142 139 139 142 144 143 140 136 134 136 139 140 139 133 135 135 133 133 130 130 130 130 132 129 127 127 125 119 140 145 143 135 129 134 104 113
148 149 150 138 137 136 138 140 135 135 137 139 137 137 137 137 140 143 141 137 139 140 139 140 141 139 139 138 137 135 136 137 141 142 138 136 125 154 149 144 138 129 126
147 147 152 140 140 138 133 129 128 132 135 135 136 137 139 139 140 142 140 141 141 145 147 148 147 147 145 143 141 140 143 144 150 151 169 142 144 150 161 162 153 139 136
146 151 148 140 142 143 138 133 133 133 134 135 137 140 142 142 141 141 142 142 149 152 154 156 155 152 150 150 150 152 154 160 169 197 178 172 169 150 179 177 168 161 173
147 154 140 138 141 143 143 137 137 137 137 140 140 141 142 141 138 140 143 145 152 157 161 160 157 158 156 157 158 164 171 179 202 197 211 196 206 144 187 188 184 173 176
150 149 147 138 143 145 146 145 142 139 139 142 144 147 145 143 140 140 144 148 156 162 166 164 164 168 164 170 177 184 192 203 232 198 236 213 208 185 199 198 202 199 192
152 153 148 140 146 148 149 149 147 146 142 145 148 149 148 145 144 145 148 153 161 167 172 173 180 186 184 187 195 202 210 225 223 241 256 230 165 196 209 208 209 209 202
154 156 157 158 156 149 151 153 152 152 149 148 149 149 150 149 149 152 153 156 160 172 181 182 188 199 203 208 214 222 226 235 256 242 254 243 158 213 223 220 221 216 216
158 165 164 165 167 169 165 161 156 156 155 153 151 154 156 155 158 165 166 170 172 176 188 202 208 214 221 232 241 244 251 260 257 261 246 245 240 241 249 233 223 222 219
161 171 176 173 175 172 172 169 161 161 158 157 159 159 164 185 184 180 192 170 181 183 191 203 216 225 231 239 247 252 260 252 260 256 260 189 251 261 264 235 227 224 222
176 179 177 180 185 182 176 173 179 178 184 185 185 180 188 196 198 201 196 194 194 195 200 208 216 223 229 240 235 236 245 259 262 264 266 254 251 256 252 240 235 229 223
185 197 195 186 190 192 186 181 183 188 189 192 192 190 194 192 202 209 212 210 212 202 217 210 220 230 232 242 249 261 265 266 267 265 263 242 249 251 255 248 245 238 229
183 187 198 203 202 200 194 191 189 192 188 194 199 199 196 201 191 200 213 220 223 219 216 221 228 233 237 245 256 268 272 275 270 275 273 248 264 264 264 261 250 240 223
200 200 194 197 208 212 208 217 219 200 194 194 200 201 203 210 216 213 206 206 215 216 218 226 233 240 242 246 252 263 265 280 287 285 288 288 271 268 273 275 262 240 229
215 207 211 215 206 209 217 212 217 221 214 208 200 207 206 213 223 234 238 237 225 227 234 222 217 240 251 259 258 262 273 277 281 283 282 289 270 266 265 270 257 234 227
267 273 222 221 210 217 224 222 214 219 230 225 220 208 217 209 221 239 235 239 248 234 247 256 245 230 243 257 262 259 260 261 265 273 276 274 276 245 251 257 254 238 233
191 206 231 223 227 229 227 231 234 221 226 225 226 218 212 212 216 231 244 248 253 250 255 252 264 258 260 261 269 267 261 254 253 258 265 269 266 271 246 236 248 241 237
181 199 222 235 232 217 217 219 206 194 197 202 216 219 221 226 224 219 232 236 227 233 226 251 257 260 271 277 280 281 276 273 272 266 259 258 261 261 259 241 239 248 242
183 140 193 241 225 216 212 205 217 216 201 206 215 224 226 225 213 220 226 233 222 227 226 215 251 275 300 311 302 293 282 274 270 265 265 260 259 256 254 258 253 251 228
168 171 204 202 222 196 204 212 220 224 214 205 211 226 228 231 233 223 227 224 211 215 210 200 189 212 260 294 314 292 286 265 257 254 260 264 260 250 250 242 244 246 251
32 4 28 6 242 217 215 204 227 213 231 242 236 231 234 237 232 224 221 206 199 201 187 198 177 212 214 160 249 289 293 312 247 252 258 258 259 256 248 239 244 239 246
51 60 69 70 94 214 229 198 210 249 262 241 233 240 233 230 230 228 220 205 205 196 210 226 203 203 230 190 186 235 276 269 320 280 310 293 283 273 266 263 250 245 239
54 53 60 54 47 38 28 14 228 248 249 246 256 217 223 212 215 220 221 219 222 228 232 228 217 218 215 237 188 217 240 257 252 284 267 295 297 286 272 268 259 254 250
49 46 42 52 48 41 42 35 37 19 3 343 329 334 323 309 290 253 239 239 237 232 233 229 219 214 214 228 228 215 218 220 231 242 285 261 250 269 284 277 266 265 250
48 45 44 33 41 35 30 31 29 23 4 351 350 336 329 322 318 313 301 283 268 255 244 244 241 227 219 219 222 224 217 216 205 214 240 251 246 243 265 272 270 264 260